Location: Unspecified
(0.0000°N, 0.0000°E)
Time: 22:06:13
(UTC+00:00)

N. Korean satellite - Pass Details

Date: 05 August 2021
Orbit: 449 x 498 km, 97.3° (Epoch: 25 September)

Event Time Altitude Azimuth Distance (km) Brightness Sun altitude
Rises 05:21:01 0° 353° (N) 2,465 10.3 -10.8°
Reaches altitude 10° 05:23:15 10° 341° (NNW) 1,587 9.2 -10.2°
Maximum altitude 05:26:11 28° 281° (W) 886 7.4 -9.5°
Drops below altitude 10° 05:29:08 10° 221° (SW) 1,580 8.7 -8.8°
Enters shadow 05:29:58 - 215° (SW) 1,900 9.1 -8.6°
